User: anonymous   Login
Location: Ithaca
(42.4410°N, 76.4970°W)
Time: 07:29:57
(UTC-04:00)
Language:

Cosmos 1271 Rocket - Orbit

View from above orbital plane
View from above orbital plane
View from above satellite
View from above satellite

Ground track
Ground track

The orbit data is extracted from the following two-line orbital elements,

1 12465U 81046B   16238.20997247  .00000412  00000-0  21320-4 0  9996
2 12465  81.2455   4.3117 0034398 228.3447 131.4835 15.13436213922689
Epoch (UTC): 25 August 2016 05:02:21
Eccentricity: 0.0034398
inclination: 81.2455°
perigee height: 502 km
apogee height: 549 km
right ascension of ascending node: 4.3117°
argument of perigee: 228.3447°
revolutions per day: 15.13436213
mean anomaly at epoch: 131.4835°
orbit number at epoch: 92268

The dashed part of the orbit path shows where the satellite is in the earth's shadow,  

DLR